| time (UTC) | temp C | wind direction | speed KPH | gust KPH | rain 1hr cm | rain 24hr cm | rain mn cm | humidity % | barometer mb |
| 20260507155503 | 16 | 137 | 12.9 | 19.3 | 0.00 | 0.05 | 0.05 | 66 | 1010.9 |
| 20260507155003 | 16 | 141 | 12.9 | 22.5 | 0.00 | 0.05 | 0.05 | 67 | 1010.9 |
| 20260507154503 | 16 | 127 | 12.9 | 22.5 | 0.00 | 0.05 | 0.05 | 66 | 1010.9 |
| 20260507154004 | 16 | 116 | 12.9 | 22.5 | 0.00 | 0.05 | 0.05 | 66 | 1010.9 |
| 20260507153504 | 16 | 110 | 11.3 | 20.9 | 0.00 | 0.05 | 0.05 | 66 | 1010.9 |
| 20260507153004 | 16 | 112 | 12.9 | 20.9 | 0.00 | 0.05 | 0.05 | 68 | 1010.9 |
| 20260507152714 | 16 | 118 | 14.5 | 20.9 | 0.00 | 0.05 | 0.05 | 67 | 1010.8 |
| 20260507152214 | 16 | 128 | 14.5 | 24.1 | 0.00 | 0.05 | 0.05 | 67 | 1010.8 |
| 20260507151503 | 16 | 130 | 14.5 | 25.7 | 0.00 | 0.05 | 0.05 | 65 | 1010.9 |
| 20260507151003 | 16 | 144 | 14.5 | 25.7 | 0.00 | 0.05 | 0.05 | 67 | 1010.9 |
| 20260507150504 | 16 | 142 | 14.5 | 25.7 | 0.00 | 0.05 | 0.05 | 66 | 1010.9 |
| 20260507150005 | 16 | 132 | 16.1 | 27.4 | 0.00 | 0.05 | 0.05 | 66 | 1011.0 |
| 20260507145503 | 16 | 126 | 17.7 | 29.0 | 0.00 | 0.05 | 0.05 | 66 | 1010.9 |
| 20260507145003 | 16 | 117 | 19.3 | 29.0 | 0.00 | 0.05 | 0.05 | 66 | 1010.8 |
| 20260507144504 | 16 | 114 | 17.7 | 27.4 | 0.00 | 0.05 | 0.05 | 65 | 1010.8 |
| 20260507144003 | 16 | 129 | 16.1 | 27.4 | 0.00 | 0.05 | 0.05 | 65 | 1010.8 |
| 20260507143503 | 16 | 134 | 17.7 | 30.6 | 0.00 | 0.05 | 0.05 | 66 | 1010.8 |
| 20260507143004 | 16 | 128 | 17.7 | 30.6 | 0.00 | 0.05 | 0.05 | 65 | 1010.9 |
| 20260507142504 | 16 | 125 | 17.7 | 27.4 | 0.00 | 0.05 | 0.05 | 65 | 1010.9 |
| 20260507142003 | 16 | 121 | 17.7 | 27.4 | 0.00 | 0.05 | 0.05 | 65 | 1010.9 |
| 20260507141714 | 16 | 120 | 16.1 | 27.4 | 0.00 | 0.05 | 0.05 | 65 | 1010.8 |
| 20260507141004 | 16 | 126 | 16.1 | 29.0 | 0.00 | 0.05 | 0.05 | 66 | 1011.0 |
| 20260507140503 | 16 | 118 | 19.3 | 29.0 | 0.00 | 0.05 | 0.05 | 65 | 1011.0 |
| 20260507140215 | 16 | 115 | 17.7 | 29.0 | 0.00 | 0.05 | 0.05 | 65 | 1011.0 |
| 20260507135504 | 16 | 113 | 17.7 | 25.7 | 0.00 | 0.05 | 0.05 | 65 | 1011.1 |
| 20260507135003 | 16 | 112 | 19.3 | 29.0 | 0.00 | 0.05 | 0.05 | 65 | 1011.0 |
| 20260507134503 | 16 | 112 | 20.9 | 29.0 | 0.00 | 0.05 | 0.05 | 66 | 1011.0 |
| 20260507134003 | 16 | 116 | 17.7 | 29.0 | 0.00 | 0.05 | 0.05 | 65 | 1011.3 |
| 20260507133503 | 16 | 124 | 16.1 | 27.4 | 0.00 | 0.05 | 0.05 | 66 | 1011.3 |
| 20260507133215 | 16 | 122 | 16.1 | 27.4 | 0.00 | 0.05 | 0.05 | 67 | 1011.4 |
| 20260507132714 | 16 | 115 | 17.7 | 33.8 | 0.00 | 0.05 | 0.05 | 68 | 1011.4 |
| 20260507132003 | 16 | 115 | 19.3 | 33.8 | 0.00 | 0.05 | 0.05 | 67 | 1011.5 |
| 20260507131714 | 16 | 121 | 17.7 | 29.0 | 0.00 | 0.05 | 0.05 | 69 | 1011.4 |
| 20260507131212 | 16 | 123 | 19.3 | 27.4 | 0.00 | 0.05 | 0.05 | 69 | 1011.5 |
| 20260507130503 | 16 | 124 | 17.7 | 30.6 | 0.00 | 0.05 | 0.05 | 68 | 1011.5 |
| 20260507130004 | 16 | 125 | 16.1 | 33.8 | 0.00 | 0.05 | 0.05 | 67 | 1011.6 |
| 20260507125504 | 17 | 128 | 17.7 | 33.8 | 0.00 | 0.05 | 0.05 | 68 | 1011.6 |
| 20260507125004 | 16 | 138 | 17.7 | 29.0 | 0.00 | 0.05 | 0.05 | 69 | 1011.6 |
| 20260507124503 | 17 | 142 | 16.1 | 29.0 | 0.00 | 0.05 | 0.05 | 68 | 1011.6 |
| 20260507124003 | 17 | 140 | 14.5 | 25.7 | 0.00 | 0.05 | 0.05 | 68 | 1011.6 |
| 20260507123503 | 17 | 131 | 14.5 | 27.4 | 0.00 | 0.05 | 0.05 | 69 | 1011.7 |
| 20260507123004 | 16 | 125 | 16.1 | 27.4 | 0.00 | 0.05 | 0.05 | 69 | 1011.6 |
| 20260507122504 | 16 | 123 | 14.5 | 25.7 | 0.00 | 0.05 | 0.05 | 68 | 1011.5 |
| 20260507122004 | 16 | 129 | 14.5 | 22.5 | 0.00 | 0.05 | 0.05 | 71 | 1011.6 |
| 20260507121503 | 16 | 130 | 14.5 | 22.5 | 0.00 | 0.05 | 0.05 | 70 | 1011.6 |
| 20260507121003 | 16 | 126 | 16.1 | 30.6 | 0.00 | 0.05 | 0.05 | 70 | 1011.6 |
| 20260507120503 | 16 | 117 | 16.1 | 30.6 | 0.00 | 0.05 | 0.05 | 71 | 1011.5 |
| 20260507120005 | 16 | 113 | 16.1 | 25.7 | 0.00 | 0.05 | 0.05 | 70 | 1011.6 |
| 20260507115503 | 16 | 118 | 16.1 | 29.0 | 0.00 | 0.05 | 0.05 | 70 | 1011.7 |
| 20260507115003 | 16 | 123 | 17.7 | 29.0 | 0.00 | 0.05 | 0.05 | 71 | 1011.7 |
| 20260507114503 | 16 | 124 | 16.1 | 29.0 | 0.00 | 0.05 | 0.05 | 70 | 1011.8 |
| 20260507114003 | 16 | 128 | 12.9 | 24.1 | 0.00 | 0.05 | 0.05 | 70 | 1011.7 |
| 20260507113503 | 16 | 135 | 12.9 | 22.5 | 0.00 | 0.05 | 0.05 | 70 | 1011.8 |
| 20260507113214 | 16 | 132 | 11.3 | 22.5 | 0.00 | 0.05 | 0.05 | 70 | 1011.8 |
| 20260507112503 | 16 | 130 | 12.9 | 20.9 | 0.00 | 0.05 | 0.05 | 70 | 1011.9 |
| 20260507112214 | 16 | 129 | 14.5 | 22.5 | 0.00 | 0.05 | 0.05 | 71 | 1011.9 |
| 20260507111713 | 16 | 122 | 16.1 | 24.1 | 0.00 | 0.05 | 0.05 | 71 | 1012.0 |
| 20260507111004 | 16 | 123 | 16.1 | 24.1 | 0.00 | 0.05 | 0.05 | 73 | 1012.1 |
| 20260507110713 | 16 | 131 | 14.5 | 24.1 | 0.00 | 0.05 | 0.05 | 73 | 1012.2 |
| 20260507110005 | 15 | 128 | 12.9 | 19.3 | 0.00 | 0.05 | 0.05 | 73 | 1012.3 |
| 20260507105503 | 15 | 126 | 14.5 | 22.5 | 0.00 | 0.05 | 0.05 | 72 | 1012.3 |
| 20260507105003 | 16 | 133 | 12.9 | 22.5 | 0.00 | 0.05 | 0.05 | 72 | 1012.3 |
| 20260507104504 | 16 | 125 | 11.3 | 17.7 | 0.00 | 0.05 | 0.05 | 71 | 1012.2 |
| 20260507104214 | 16 | 110 | 11.3 | 22.5 | 0.00 | 0.05 | 0.05 | 71 | 1012.2 |
| 20260507103504 | 16 | 115 | 16.1 | 25.7 | 0.00 | 0.05 | 0.05 | 72 | 1012.2 |
| 20260507103004 | 15 | 125 | 16.1 | 25.7 | 0.00 | 0.05 | 0.05 | 73 | 1012.2 |
| 20260507102503 | 16 | 121 | 12.9 | 24.1 | 0.00 | 0.05 | 0.05 | 73 | 1012.3 |
| 20260507102003 | 16 | 119 | 12.9 | 27.4 | 0.00 | 0.05 | 0.05 | 74 | 1012.3 |
| 20260507101503 | 15 | 120 | 14.5 | 27.4 | 0.00 | 0.05 | 0.05 | 76 | 1012.4 |
| 20260507101004 | 15 | 128 | 16.1 | 22.5 | 0.00 | 0.05 | 0.05 | 76 | 1012.6 |
| 20260507100503 | 15 | 131 | 16.1 | 22.5 | 0.00 | 0.05 | 0.05 | 76 | 1012.6 |
| 20260507100005 | 15 | 131 | 16.1 | 22.5 | 0.00 | 0.05 | 0.05 | 76 | 1012.6 |
| 20260507095503 | 15 | 128 | 12.9 | 22.5 | 0.00 | 0.05 | 0.05 | 76 | 1012.7 |
| 20260507095003 | 15 | 127 | 11.3 | 22.5 | 0.00 | 0.05 | 0.05 | 76 | 1012.6 |
| 20260507094504 | 15 | 145 | 9.7 | 19.3 | 0.00 | 0.05 | 0.05 | 77 | 1012.6 |
| 20260507094213 | 15 | 145 | 9.7 | 17.7 | 0.00 | 0.05 | 0.05 | 76 | 1012.6 |
| 20260507093504 | 15 | 120 | 9.7 | 17.7 | 0.00 | 0.05 | 0.05 | 76 | 1012.5 |
| 20260507093004 | 15 | 115 | 9.7 | 17.7 | 0.00 | 0.05 | 0.05 | 78 | 1012.5 |
| 20260507092504 | 15 | 105 | 8.0 | 19.3 | 0.00 | 0.05 | 0.05 | 78 | 1012.5 |
| 20260507092004 | 15 | 99 | 6.4 | 19.3 | 0.00 | 0.05 | 0.05 | 78 | 1012.5 |
| 20260507091714 | 15 | 101 | 8.0 | 19.3 | 0.00 | 0.05 | 0.05 | 79 | 1012.4 |
| 20260507091003 | 15 | 104 | 6.4 | 19.3 | 0.00 | 0.05 | 0.05 | 77 | 1012.5 |
| 20260507090503 | 15 | 107 | 1.6 | 12.9 | 0.00 | 0.05 | 0.05 | 78 | 1012.4 |
| 20260507090005 | 15 | 126 | 3.2 | 12.9 | 0.00 | 0.05 | 0.05 | 79 | 1012.4 |
| 20260507085504 | 15 | 152 | 4.8 | 12.9 | 0.00 | 0.05 | 0.05 | 78 | 1012.5 |
| 20260507085003 | 14 | 145 | 4.8 | 14.5 | 0.00 | 0.05 | 0.05 | 80 | 1012.4 |
| 20260507084503 | 13 | 132 | 6.4 | 14.5 | 0.00 | 0.05 | 0.05 | 79 | 1012.5 |
| 20260507084003 | 13 | 138 | 8.0 | 14.5 | 0.00 | 0.05 | 0.05 | 80 | 1012.6 |
| 20260507083503 | 13 | 129 | 8.0 | 14.5 | 0.00 | 0.05 | 0.05 | 80 | 1012.6 |
| 20260507083004 | 13 | 134 | 8.0 | 16.1 | 0.00 | 0.05 | 0.05 | 79 | 1012.6 |
| 20260507082503 | 13 | 145 | 8.0 | 16.1 | 0.00 | 0.05 | 0.05 | 81 | 1012.7 |
| 20260507082004 | 13 | 136 | 8.0 | 14.5 | 0.00 | 0.05 | 0.05 | 82 | 1012.8 |
| 20260507081714 | 13 | 148 | 9.7 | 14.5 | 0.00 | 0.05 | 0.05 | 81 | 1012.7 |
| 20260507081003 | 13 | 148 | 9.7 | 16.1 | 0.00 | 0.05 | 0.05 | 80 | 1012.8 |
| 20260507080503 | 13 | 139 | 8.0 | 14.5 | 0.00 | 0.05 | 0.05 | 81 | 1012.8 |
| 20260507080005 | 13 | 131 | 8.0 | 16.1 | 0.00 | 0.05 | 0.05 | 79 | 1012.9 |
| 20260507075504 | 13 | 106 | 8.0 | 16.1 | 0.00 | 0.05 | 0.05 | 80 | 1012.9 |
| 20260507075003 | 13 | 105 | 8.0 | 14.5 | 0.00 | 0.05 | 0.05 | 80 | 1013.0 |
| 20260507074503 | 13 | 124 | 9.7 | 16.1 | 0.00 | 0.05 | 0.05 | 81 | 1012.9 |
| 20260507074215 | 13 | 135 | 8.0 | 16.1 | 0.00 | 0.05 | 0.05 | 81 | 1012.9 |
| 20260507073503 | 13 | 129 | 9.7 | 17.7 | 0.00 | 0.05 | 0.05 | 80 | 1012.9 |
| 20260507073004 | 13 | 119 | 8.0 | 17.7 | 0.00 | 0.05 | 0.05 | 80 | 1012.8 |
| 20260507072503 | 13 | 105 | 6.4 | 14.5 | 0.00 | 0.05 | 0.05 | 81 | 1012.8 |
| 20260507072003 | 12 | 109 | 3.2 | 11.3 | 0.00 | 0.05 | 0.05 | 83 | 1012.7 |
| 20260507071504 | 12 | 113 | 1.6 | 8.0 | 0.00 | 0.05 | 0.05 | 85 | 1012.7 |
| 20260507071003 | 12 | 78 | 1.6 | 4.8 | 0.00 | 0.05 | 0.05 | 87 | 1012.7 |
| 20260507070503 | 11 | 5 | 1.6 | 4.8 | 0.00 | 0.05 | 0.05 | 93 | 1012.7 |
| 20260507070009 | 10 | 304 | 0.0 | 3.2 | 0.00 | 0.05 | 0.05 | 95 | 1012.6 |
| 20260507065504 | 10 | 304 | 1.6 | 4.8 | 0.00 | 0.05 | 0.05 | 96 | 1012.6 |
| 20260507065003 | 10 | 304 | 1.6 | 4.8 | 0.00 | 0.05 | 0.05 | 97 | 1012.6 |
| 20260507064504 | 9 | 304 | 1.6 | 4.8 | 0.00 | 0.05 | 0.05 | 97 | 1012.6 |
| 20260507064003 | 8 | 304 | 3.2 | 4.8 | 0.00 | 0.05 | 0.05 | 97 | 1012.6 |
| 20260507063503 | 8 | 304 | 1.6 | 4.8 | 0.00 | 0.05 | 0.05 | 97 | 1012.7 |
| 20260507063004 | 8 | 304 | 1.6 | 4.8 | 0.00 | 0.05 | 0.05 | 97 | 1012.7 |
| 20260507062503 | 8 | 305 | 1.6 | 4.8 | 0.00 | 0.05 | 0.05 | 97 | 1012.7 |
| 20260507062004 | 8 | 306 | 1.6 | 4.8 | 0.00 | 0.05 | 0.05 | 97 | 1012.7 |
| 20260507061503 | 7 | 303 | 3.2 | 6.4 | 0.00 | 0.05 | 0.05 | 97 | 1012.6 |
| 20260507061214 | 7 | 302 | 3.2 | 6.4 | 0.00 | 0.05 | 0.05 | 97 | 1012.6 |
| 20260507060503 | 7 | 300 | 3.2 | 6.4 | 0.00 | 0.05 | 0.05 | 97 | 1012.5 |
| 20260507060004 | 7 | 299 | 4.8 | 6.4 | 0.03 | 0.05 | 0.05 | 97 | 1012.5 |
| 20260507055504 | 7 | 301 | 3.2 | 6.4 | 0.03 | 0.05 | 0.05 | 97 | 1012.5 |
| 20260507055004 | 6 | 306 | 3.2 | 6.4 | 0.03 | 0.05 | 0.05 | 97 | 1012.4 |
| 20260507054503 | 6 | 304 | 3.2 | 6.4 | 0.03 | 0.05 | 0.05 | 97 | 1012.5 |
| 20260507054214 | 6 | 300 | 3.2 | 6.4 | 0.03 | 0.05 | 0.05 | 97 | 1012.5 |
| 20260507053504 | 6 | 297 | 1.6 | 6.4 | 0.03 | 0.05 | 0.05 | 97 | 1012.5 |
| 20260507053005 | 6 | 292 | 1.6 | 6.4 | 0.03 | 0.05 | 0.05 | 97 | 1012.5 |
| 20260507052503 | 6 | 287 | 1.6 | 4.8 | 0.03 | 0.05 | 0.05 | 97 | 1012.5 |
| 20260507052003 | 6 | 290 | 3.2 | 6.4 | 0.03 | 0.05 | 0.05 | 97 | 1012.4 |
| 20260507051504 | 6 | 293 | 3.2 | 6.4 | 0.03 | 0.05 | 0.05 | 97 | 1012.4 |
| 20260507051003 | 6 | 293 | 3.2 | 6.4 | 0.03 | 0.05 | 0.05 | 97 | 1012.4 |
| 20260507050504 | 6 | 290 | 3.2 | 6.4 | 0.03 | 0.05 | 0.05 | 97 | 1012.4 |
| 20260507050004 | 6 | 288 | 1.6 | 4.8 | 0.00 | 0.03 | 0.03 | 97 | 1012.4 |
| 20260507045503 | 6 | 289 | 1.6 | 4.8 | 0.00 | 0.03 | 0.03 | 97 | 1012.3 |
| 20260507045003 | 6 | 288 | 3.2 | 6.4 | 0.00 | 0.03 | 0.03 | 97 | 1012.3 |
| 20260507044503 | 6 | 290 | 3.2 | 6.4 | 0.00 | 0.03 | 0.03 | 97 | 1012.2 |
| 20260507044003 | 6 | 299 | 1.6 | 6.4 | 0.00 | 0.03 | 0.03 | 97 | 1012.3 |
| 20260507043715 | 6 | 305 | 3.2 | 6.4 | 0.00 | 0.03 | 0.03 | 97 | 1012.2 |
| 20260507043004 | 6 | 318 | 1.6 | 4.8 | 0.00 | 0.03 | 0.03 | 97 | 1012.3 |
| 20260507042714 | 6 | 317 | 1.6 | 4.8 | 0.00 | 0.03 | 0.03 | 97 | 1012.2 |
| 20260507042213 | 6 | 297 | 1.6 | 4.8 | 0.00 | 0.03 | 0.03 | 97 | 1012.3 |
| 20260507041503 | 7 | 290 | 3.2 | 6.4 | 0.00 | 0.03 | 0.03 | 97 | 1012.3 |
| 20260507041213 | 7 | 291 | 3.2 | 6.4 | 0.00 | 0.03 | 0.03 | 97 | 1012.3 |
| 20260507040503 | 7 | 291 | 3.2 | 6.4 | 0.00 | 0.03 | 0.03 | 97 | 1012.2 |
| 20260507040215 | 7 | 290 | 3.2 | 6.4 | 0.00 | 0.03 | 0.03 | 97 | 1012.2 |
| 20260507035503 | 7 | 290 | 3.2 | 6.4 | 0.00 | 0.03 | 0.03 | 97 | 1012.2 |
| 20260507035004 | 7 | 292 | 3.2 | 6.4 | 0.00 | 0.03 | 0.03 | 97 | 1012.3 |
| 20260507034503 | 7 | 293 | 3.2 | 6.4 | 0.00 | 0.03 | 0.03 | 97 | 1012.2 |
| 20260507034213 | 7 | 292 | 3.2 | 4.8 | 0.00 | 0.03 | 0.03 | 96 | 1012.2 |
| 20260507033714 | 7 | 292 | 3.2 | 4.8 | 0.00 | 0.03 | 0.03 | 96 | 1012.1 |
| 20260507033004 | 7 | 292 | 3.2 | 4.8 | 0.00 | 0.03 | 0.03 | 97 | 1012.1 |
| 20260507032503 | 7 | 292 | 3.2 | 4.8 | 0.00 | 0.03 | 0.03 | 97 | 1012.2 |
| 20260507032003 | 7 | 292 | 1.6 | 4.8 | 0.00 | 0.03 | 0.03 | 96 | 1012.2 |
| 20260507031504 | 7 | 292 | 1.6 | 3.2 | 0.00 | 0.03 | 0.03 | 96 | 1012.2 |
| 20260507031004 | 7 | 291 | 3.2 | 6.4 | 0.00 | 0.03 | 0.03 | 96 | 1012.2 |
| 20260507030504 | 8 | 290 | 4.8 | 6.4 | 0.00 | 0.03 | 0.03 | 96 | 1012.2 |
| 20260507030215 | 8 | 290 | 3.2 | 6.4 | 0.00 | 0.03 | 0.03 | 96 | 1012.2 |
| 20260507025503 | 8 | 292 | 3.2 | 4.8 | 0.00 | 0.03 | 0.03 | 96 | 1012.2 |
| 20260507025212 | 8 | 291 | 3.2 | 4.8 | 0.00 | 0.03 | 0.03 | 96 | 1012.2 |
| 20260507024503 | 8 | 286 | 1.6 | 3.2 | 0.00 | 0.03 | 0.03 | 96 | 1012.2 |
| 20260507024003 | 8 | 286 | 1.6 | 4.8 | 0.00 | 0.03 | 0.03 | 96 | 1012.2 |
| 20260507023503 | 8 | 287 | 3.2 | 4.8 | 0.00 | 0.03 | 0.03 | 96 | 1012.3 |
| 20260507023004 | 8 | 287 | 1.6 | 4.8 | 0.00 | 0.03 | 0.03 | 96 | 1012.4 |
| 20260507022714 | 8 | 288 | 0.0 | 4.8 | 0.00 | 0.03 | 0.03 | 96 | 1012.4 |
| 20260507022003 | 8 | 288 | 0.0 | 1.6 | 0.00 | 0.03 | 0.03 | 96 | 1012.4 |
| 20260507021714 | 8 | 288 | 0.0 | 3.2 | 0.00 | 0.03 | 0.03 | 96 | 1012.4 |
| 20260507021003 | 8 | 288 | 0.0 | 3.2 | 0.00 | 0.03 | 0.03 | 96 | 1012.4 |
| 20260507020713 | 8 | 288 | 0.0 | 3.2 | 0.00 | 0.03 | 0.03 | 96 | 1012.5 |
| 20260507020005 | 8 | 290 | 3.2 | 6.4 | 0.00 | 0.03 | 0.03 | 96 | 1012.6 |
| 20260507015714 | 8 | 292 | 3.2 | 6.4 | 0.00 | 0.03 | 0.03 | 96 | 1012.5 |
| 20260507015004 | 8 | 297 | 1.6 | 4.8 | 0.00 | 0.03 | 0.03 | 95 | 1012.5 |
| 20260507014504 | 8 | 298 | 1.6 | 4.8 | 0.00 | 0.03 | 0.03 | 96 | 1012.4 |
| 20260507014003 | 8 | 298 | 1.6 | 4.8 | 0.00 | 0.03 | 0.03 | 95 | 1012.5 |
| 20260507013713 | 8 | 298 | 1.6 | 4.8 | 0.00 | 0.03 | 0.03 | 95 | 1012.5 |
| 20260507013004 | 8 | 298 | 1.6 | 3.2 | 0.00 | 0.03 | 0.03 | 95 | 1012.5 |
| 20260507012503 | 9 | 298 | 1.6 | 3.2 | 0.00 | 0.03 | 0.03 | 95 | 1012.6 |
| 20260507012003 | 9 | 298 | 1.6 | 3.2 | 0.00 | 0.03 | 0.03 | 95 | 1012.6 |
| 20260507011503 | 9 | 298 | 1.6 | 3.2 | 0.00 | 0.03 | 0.03 | 95 | 1012.6 |
| 20260507011214 | 9 | 298 | 1.6 | 3.2 | 0.00 | 0.03 | 0.03 | 95 | 1012.7 |
| 20260507010503 | 9 | 298 | 0.0 | 1.6 | 0.03 | 0.03 | 0.03 | 94 | 1012.8 |
| 20260507010004 | 10 | 298 | 1.6 | 3.2 | 0.03 | 0.03 | 0.03 | 94 | 1012.9 |
| 20260507005504 | 10 | 298 | 1.6 | 3.2 | 0.03 | 0.03 | 0.03 | 94 | 1013.0 |
| 20260507005004 | 10 | 298 | 0.0 | 3.2 | 0.03 | 0.03 | 0.03 | 94 | 1013.0 |
| 20260507004713 | 10 | 298 | 0.0 | 3.2 | 0.03 | 0.03 | 0.03 | 94 | 1013.1 |
| 20260507004214 | 10 | 298 | 0.0 | 1.6 | 0.03 | 0.03 | 0.03 | 94 | 1013.1 |
| 20260507003503 | 10 | 0 | 0.0 | 0.0 | 0.03 | 0.03 | 0.03 | 93 | 1013.1 |
| 20260507003004 | 10 | 298 | 1.6 | 4.8 | 0.03 | 0.03 | 0.03 | 93 | 1013.2 |
| 20260507002504 | 10 | 303 | 1.6 | 4.8 | 0.03 | 0.03 | 0.03 | 93 | 1013.3 |
| 20260507002003 | 10 | 305 | 1.6 | 4.8 | 0.03 | 0.05 | 0.03 | 92 | 1013.2 |
| 20260507001504 | 10 | 318 | 1.6 | 4.8 | 0.03 | 0.05 | 0.03 | 92 | 1013.3 |
| 20260507001003 | 10 | 319 | 0.0 | 4.8 | 0.03 | 0.05 | 0.03 | 92 | 1013.3 |
| 20260507000503 | 10 | 323 | 0.0 | 3.2 | 0.00 | 0.03 | 0.00 | 91 | 1013.3 |
| 20260507000214 | 10 | 323 | 0.0 | 3.2 | 0.00 | 0.03 | 0.00 | 91 | 1013.3 |
| 20260506235504 | 10 | 319 | 1.6 | 3.2 | 0.00 | 0.03 | 0.00 | 91 | 1013.4 |
| 20260506235004 | 10 | 316 | 1.6 | 4.8 | 0.00 | 0.03 | 0.00 | 91 | 1013.4 |
| 20260506234714 | 10 | 315 | 1.6 | 4.8 | 0.00 | 0.03 | 0.00 | 91 | 1013.5 |
| 20260506234003 | 10 | 330 | 1.6 | 4.8 | 0.00 | 0.03 | 0.00 | 90 | 1013.6 |
| 20260506233504 | 11 | 322 | 1.6 | 4.8 | 0.00 | 0.03 | 0.00 | 91 | 1013.6 |
| 20260506233004 | 11 | 307 | 1.6 | 8.0 | 0.00 | 0.03 | 0.00 | 91 | 1013.5 |
| 20260506232503 | 11 | 304 | 1.6 | 8.0 | 0.00 | 0.03 | 0.00 | 91 | 1013.5 |
| 20260506232004 | 11 | 287 | 3.2 | 6.4 | 0.00 | 0.03 | 0.00 | 91 | 1013.5 |
| 20260506231504 | 11 | 282 | 3.2 | 6.4 | 0.00 | 0.03 | 0.00 | 91 | 1013.5 |
| 20260506231003 | 11 | 282 | 1.6 | 6.4 | 0.00 | 0.03 | 0.00 | 91 | 1013.5 |
| 20260506230503 | 11 | 285 | 1.6 | 6.4 | 0.00 | 0.03 | 0.00 | 91 | 1013.5 |
| 20260506230004 | 11 | 289 | 3.2 | 6.4 | 0.00 | 0.03 | 0.00 | 92 | 1013.5 |
| 20260506225714 | 11 | 290 | 1.6 | 6.4 | 0.00 | 0.03 | 0.00 | 92 | 1013.4 |
| 20260506225213 | 11 | 295 | 0.0 | 4.8 | 0.00 | 0.03 | 0.00 | 92 | 1013.4 |
| 20260506224714 | 11 | 0 | 0.0 | 0.0 | 0.00 | 0.03 | 0.00 | 92 | 1013.4 |
| 20260506224213 | 11 | 0 | 0.0 | 0.0 | 0.00 | 0.03 | 0.00 | 92 | 1013.4 |
| 20260506223714 | 11 | 296 | 0.0 | 1.6 | 0.00 | 0.03 | 0.00 | 91 | 1013.5 |
| 20260506223215 | 11 | 296 | 0.0 | 1.6 | 0.00 | 0.03 | 0.00 | 91 | 1013.4 |
| 20260506222503 | 11 | 296 | 0.0 | 1.6 | 0.00 | 0.03 | 0.00 | 91 | 1013.4 |
| 20260506222004 | 11 | 301 | 1.6 | 4.8 | 0.00 | 0.03 | 0.00 | 91 | 1013.4 |
| 20260506221504 | 11 | 308 | 1.6 | 4.8 | 0.00 | 0.03 | 0.00 | 91 | 1013.4 |
| 20260506221003 | 11 | 319 | 0.0 | 4.8 | 0.00 | 0.03 | 0.00 | 90 | 1013.4 |
| 20260506220503 | 11 | 320 | 0.0 | 1.6 | 0.00 | 0.03 | 0.00 | 90 | 1013.4 |
| 20260506220217 | 11 | 320 | 0.0 | 1.6 | 0.00 | 0.03 | 0.00 | 90 | 1013.4 |
| 20260506215714 | 11 | 320 | 0.0 | 3.2 | 0.00 | 0.03 | 0.03 | 89 | 1013.4 |
| 20260506215003 | 11 | 320 | 1.6 | 3.2 | 0.00 | 0.03 | 0.03 | 89 | 1013.5 |
| 20260506214503 | 11 | 320 | 0.0 | 3.2 | 0.00 | 0.03 | 0.03 | 89 | 1013.5 |
| 20260506214003 | 11 | 320 | 0.0 | 1.6 | 0.00 | 0.03 | 0.03 | 90 | 1013.5 |
| 20260506213503 | 11 | 320 | 0.0 | 3.2 | 0.00 | 0.03 | 0.03 | 89 | 1013.4 |
| 20260506213215 | 11 | 320 | 0.0 | 3.2 | 0.00 | 0.03 | 0.03 | 89 | 1013.5 |
| 20260506212503 | 11 | 301 | 0.0 | 3.2 | 0.00 | 0.03 | 0.03 | 89 | 1013.4 |
| 20260506212003 | 11 | 301 | 0.0 | 3.2 | 0.00 | 0.03 | 0.03 | 89 | 1013.4 |
| 20260506211503 | 11 | 0 | 0.0 | 0.0 | 0.00 | 0.03 | 0.03 | 89 | 1013.4 |
| 20260506211003 | 11 | 0 | 0.0 | 0.0 | 0.00 | 0.03 | 0.03 | 89 | 1013.3 |
| 20260506210714 | 11 | 0 | 0.0 | 0.0 | 0.00 | 0.03 | 0.03 | 89 | 1013.3 |
| 20260506210004 | 11 | 0 | 0.0 | 0.0 | 0.00 | 0.03 | 0.03 | 89 | 1013.2 |
| 20260506205503 | 11 | 277 | 0.0 | 1.6 | 0.00 | 0.03 | 0.03 | 89 | 1013.2 |
| 20260506205004 | 11 | 277 | 0.0 | 3.2 | 0.00 | 0.03 | 0.03 | 89 | 1013.2 |
| 20260506204503 | 11 | 277 | 0.0 | 3.2 | 0.00 | 0.03 | 0.03 | 89 | 1013.2 |
| 20260506204003 | 11 | 277 | 0.0 | 1.6 | 0.00 | 0.03 | 0.03 | 89 | 1013.2 |
| 20260506203503 | 11 | 277 | 0.0 | 1.6 | 0.00 | 0.03 | 0.03 | 89 | 1013.1 |
| 20260506203004 | 11 | 277 | 1.6 | 4.8 | 0.00 | 0.03 | 0.03 | 89 | 1013.0 |
| 20260506202503 | 11 | 277 | 1.6 | 4.8 | 0.00 | 0.03 | 0.03 | 89 | 1012.9 |
| 20260506202003 | 11 | 277 | 0.0 | 4.8 | 0.00 | 0.03 | 0.03 | 89 | 1012.9 |
| 20260506201713 | 11 | 277 | 0.0 | 3.2 | 0.00 | 0.03 | 0.03 | 89 | 1012.9 |
| 20260506201004 | 11 | 277 | 1.6 | 3.2 | 0.00 | 0.03 | 0.03 | 89 | 1012.7 |
| 20260506200713 | 11 | 277 | 1.6 | 4.8 | 0.00 | 0.03 | 0.03 | 89 | 1012.7 |
| 20260506200004 | 11 | 277 | 4.8 | 6.4 | 0.00 | 0.03 | 0.03 | 89 | 1012.6 |
| 20260506195503 | 11 | 279 | 3.2 | 6.4 | 0.00 | 0.03 | 0.03 | 89 | 1012.6 |
| 20260506195003 | 11 | 281 | 1.6 | 4.8 | 0.00 | 0.03 | 0.03 | 88 | 1012.5 |
| 20260506194713 | 11 | 281 | 1.6 | 4.8 | 0.00 | 0.03 | 0.03 | 88 | 1012.4 |
| 20260506194003 | 11 | 271 | 1.6 | 6.4 | 0.00 | 0.03 | 0.03 | 88 | 1012.3 |
| 20260506193503 | 11 | 281 | 1.6 | 6.4 | 0.00 | 0.03 | 0.03 | 87 | 1012.1 |
| 20260506193004 | 11 | 286 | 1.6 | 4.8 | 0.00 | 0.03 | 0.03 | 87 | 1012.0 |
| 20260506192503 | 12 | 286 | 1.6 | 4.8 | 0.00 | 0.03 | 0.03 | 86 | 1012.0 |
| 20260506192004 | 12 | 288 | 3.2 | 9.7 | 0.00 | 0.03 | 0.03 | 86 | 1011.9 |
| 20260506191503 | 12 | 284 | 3.2 | 9.7 | 0.00 | 0.03 | 0.03 | 85 | 1012.0 |
| 20260506191003 | 12 | 280 | 1.6 | 6.4 | 0.00 | 0.03 | 0.03 | 85 | 1012.0 |
| 20260506190503 | 12 | 281 | 1.6 | 4.8 | 0.00 | 0.03 | 0.03 | 84 | 1012.0 |
| 20260506190214 | 12 | 284 | 1.6 | 6.4 | 0.00 | 0.03 | 0.03 | 84 | 1012.0 |
| 20260506185503 | 12 | 295 | 3.2 | 9.7 | 0.00 | 0.03 | 0.03 | 84 | 1011.8 |
| 20260506185214 | 12 | 297 | 3.2 | 9.7 | 0.00 | 0.05 | 0.03 | 83 | 1011.8 |
| 20260506184503 | 12 | 293 | 3.2 | 6.4 | 0.00 | 0.08 | 0.03 | 83 | 1011.8 |
| 20260506184004 | 12 | 294 | 3.2 | 6.4 | 0.00 | 0.10 | 0.03 | 83 | 1011.7 |
| 20260506183713 | 12 | 294 | 1.6 | 6.4 | 0.00 | 0.10 | 0.03 | 83 | 1011.6 |
| 20260506183005 | 12 | 283 | 3.2 | 6.4 | 0.00 | 0.10 | 0.03 | 83 | 1011.5 |
| 20260506182503 | 12 | 275 | 1.6 | 6.4 | 0.00 | 0.10 | 0.03 | 83 | 1011.4 |
| 20260506182003 | 12 | 305 | 1.6 | 4.8 | 0.00 | 0.10 | 0.03 | 83 | 1011.3 |
| 20260506181713 | 12 | 305 | 1.6 | 4.8 | 0.00 | 0.10 | 0.03 | 83 | 1011.3 |
| 20260506181003 | 12 | 297 | 1.6 | 6.4 | 0.00 | 0.10 | 0.03 | 82 | 1011.2 |
| 20260506180503 | 12 | 297 | 3.2 | 6.4 | 0.00 | 0.10 | 0.03 | 82 | 1011.1 |
| 20260506180005 | 12 | 298 | 1.6 | 6.4 | 0.00 | 0.10 | 0.03 | 82 | 1011.1 |
| 20260506175504 | 12 | 175 | 1.6 | 6.4 | 0.00 | 0.10 | 0.03 | 82 | 1010.9 |
| 20260506175213 | 12 | 163 | 1.6 | 6.4 | 0.00 | 0.10 | 0.03 | 82 | 1010.9 |
| 20260506174504 | 12 | 149 | 1.6 | 6.4 | 0.00 | 0.10 | 0.03 | 82 | 1010.9 |
| 20260506174213 | 12 | 152 | 1.6 | 6.4 | 0.00 | 0.10 | 0.03 | 82 | 1010.9 |
| 20260506173503 | 12 | 182 | 4.8 | 12.9 | 0.00 | 0.10 | 0.03 | 82 | 1010.7 |
| 20260506173004 | 12 | 175 | 6.4 | 12.9 | 0.00 | 0.10 | 0.03 | 82 | 1010.7 |
| 20260506172714 | 12 | 164 | 6.4 | 12.9 | 0.00 | 0.10 | 0.03 | 82 | 1010.6 |
| 20260506172004 | 12 | 137 | 8.0 | 19.3 | 0.00 | 0.10 | 0.03 | 82 | 1010.6 |
| 20260506171714 | 12 | 131 | 9.7 | 19.3 | 0.00 | 0.10 | 0.03 | 82 | 1010.6 |
| 20260506171004 | 12 | 126 | 12.9 | 22.5 | 0.00 | 0.10 | 0.03 | 81 | 1010.4 |
| 20260506170503 | 12 | 129 | 12.9 | 22.5 | 0.00 | 0.10 | 0.03 | 81 | 1010.4 |
| 20260506170004 | 12 | 127 | 12.9 | 20.9 | 0.00 | 0.10 | 0.03 | 81 | 1010.2 |
| 20260506165503 | 12 | 120 | 14.5 | 25.7 | 0.00 | 0.10 | 0.03 | 81 | 1010.3 |
| 20260506165003 | 13 | 110 | 12.9 | 25.7 | 0.00 | 0.10 | 0.03 | 81 | 1010.2 |
| 20260506164503 | 13 | 102 | 11.3 | 24.1 | 0.00 | 0.10 | 0.03 | 80 | 1010.0 |
| 20260506164003 | 13 | 98 | 9.7 | 20.9 | 0.00 | 0.10 | 0.03 | 80 | 1010.1 |
| 20260506163503 | 13 | 95 | 11.3 | 24.1 | 0.00 | 0.10 | 0.03 | 80 | 1009.8 |
| 20260506163004 | 14 | 107 | 14.5 | 24.1 | 0.00 | 0.10 | 0.03 | 80 | 1009.8 |
| 20260506162504 | 14 | 119 | 16.1 | 29.0 | 0.00 | 0.10 | 0.03 | 81 | 1009.8 |
| 20260506162003 | 14 | 112 | 16.1 | 29.0 | 0.00 | 0.10 | 0.03 | 81 | 1009.7 |
| 20260506161504 | 15 | 98 | 16.1 | 27.4 | 0.00 | 0.10 | 0.03 | 80 | 1009.6 |
| 20260506161003 | 15 | 106 | 16.1 | 27.4 | 0.00 | 0.10 | 0.03 | 80 | 1009.6 |
| 20260506160504 | 15 | 120 | 17.7 | 25.7 | 0.00 | 0.10 | 0.03 | 79 | 1009.5 |
| 20260506160215 | 15 | 123 | 17.7 | 27.4 | 0.00 | 0.10 | 0.03 | 79 | 1009.4 |